OE7SBH-WX Weather Reports


Display with metric or nautical units.
time (UTC)temp
F
wind
direction
speed
MPH
gust
MPH
rain 1hr
in
rain 24hr
in
rain mn
in
humidity
%
barometer
mb
20260508082032 57 89 1.0 3.0 0.00 0.00 0.00 73 1022.1
20260508081018 55 47 2.0 4.0 0.00 0.00 0.00 77 1022.1
20260508080020 54 352 2.0 4.0 0.00 0.00 0.00 78 1022.2
20260508075029 55 109 2.0 4.0 0.00 0.00 0.00 77 1022.3
20260508074023 53 331 1.0 3.0 0.00 0.00 0.00 79 1022.3
20260508073028 53 20 2.0 6.0 0.00 0.00 0.00 81 1022.5
20260508072023 52 52 1.0 3.0 0.00 0.00 0.00 83 1022.6
20260508071031 51 70 1.0 3.0 0.00 0.00 0.00 84 1022.6
20260508070032 51 63 1.0 3.0 0.00 0.00 0.00 85 1022.6
20260508065018 50 340 1.0 2.0 0.00 0.00 0.00 87 1022.6
20260508064021 49 327 3.0 6.0 0.00 0.00 0.00 89 1022.6
20260508063029 49 324 3.0 3.0 0.00 0.00 0.00 90 1022.6
20260508062024 49 338 0.0 2.0 0.00 0.00 0.00 90 1022.6
20260508061028 48 19 1.0 2.0 0.00 0.00 0.00 91 1022.6
20260508060022 48 16 1.0 2.0 0.00 0.00 0.00 91 1022.5
20260508055031 48 359 1.0 3.0 0.00 0.00 0.00 92 1022.4
20260508054028 48 338 2.0 2.0 0.00 0.00 0.00 92 1022.2
20260508053018 48 12 0.0 2.0 0.00 0.00 0.00 92 1022.2
20260508052020 48 17 0.0 1.0 0.00 0.00 0.00 92 1022.3
20260508051029 48 150 1.0 2.0 0.00 0.00 0.00 93 1022.3
20260508050021 48 27 0.0 1.0 0.00 0.00 0.00 93 1022.3
20260508045029 48 336 0.0 1.0 0.00 0.00 0.00 93 1022.1
20260508044024 47 337 1.0 2.0 0.00 0.00 0.00 93 1022.2
20260508043029 48 164 1.0 2.0 0.00 0.00 0.00 94 1022.1
20260508042022 48 300 0.0 1.0 0.00 0.00 0.00 94 1022.0
20260508041051 48 0.0 0.0 0.00 0.00 0.00 94 1022.1
20260508040032 47 0.0 0.0 0.00 0.00 0.00 94 1022.0
20260508035015 47 330 0.0 1.0 0.00 0.00 0.00 96 1022.1
20260508034032 47 337 0.0 2.0 0.00 0.00 0.00 97 1021.9
20260508033029 47 10 1.0 2.0 0.00 0.00 0.00 97 1021.8
20260508032022 47 359 1.0 2.0 0.00 0.00 0.00 97 1021.9
20260508031032 47 353 1.0 2.0 0.00 0.00 0.00 97 1021.9
20260508030031 47 26 1.0 2.0 0.00 0.00 0.00 97 1021.8
20260508025019 48 353 0.0 2.0 0.00 0.00 0.00 97 1021.8
20260508024041 47 336 2.0 3.0 0.00 0.00 0.00 97 1021.8
20260508023015 47 349 0.0 1.0 0.00 0.00 0.00 97 1021.7
20260508022023 47 6 0.0 1.0 0.00 0.00 0.00 97 1021.7
20260508021031 47 337 0.0 1.0 0.00 0.00 0.00 96 1021.8
20260508020031 48 335 0.0 1.0 0.00 0.00 0.00 96 1021.7
20260508015015 47 0.0 0.0 0.00 0.00 0.00 97 1021.8
20260508014020 47 340 1.0 2.0 0.00 0.00 0.00 97 1021.9
20260508013049 48 0.0 0.0 0.00 0.00 0.00 97 1021.9
20260508012043 48 0.0 0.0 0.00 0.00 0.00 97 1022.0
20260508011051 48 0.0 0.0 0.00 0.00 0.00 96 1022.1
20260508010028 48 0.0 0.0 0.00 0.00 0.00 96 1022.0
20260508005028 48 13 0.0 1.0 0.00 0.00 0.00 95 1021.9
20260508004104 48 0.0 0.0 0.00 0.00 0.00 95 1022.1
20260508003048 48 0.0 0.0 0.00 0.00 0.00 95 1022.1
20260508002028 48 0.0 0.0 0.00 0.00 0.00 93 1022.1
20260508001038 48 328 0.0 1.0 0.00 0.00 0.00 92 1022.1
20260508000020 48 326 2.0 2.0 0.00 0.00 0.00 91 1022.1
20260507235015 48 328 1.0 2.0 0.00 0.00 0.00 91 1022.2
20260507234022 48 320 0.0 1.0 0.00 0.00 0.00 92 1022.4
20260507233031 49 300 0.0 1.0 0.00 0.00 0.00 93 1022.4
20260507232028 49 0.0 0.0 0.00 0.00 0.00 93 1022.4
20260507231039 49 336 1.0 2.0 0.00 0.00 0.00 92 1022.4
20260507230020 50 0.0 0.0 0.00 0.00 0.00 92 1022.4
20260507225109 50 0.0 0.0 0.00 0.00 0.00 91 1022.4
20260507224044 50 327 1.0 1.0 0.00 0.00 0.00 92 1022.3
20260507223028 50 331 1.0 2.0 0.00 0.00 0.00 91 1022.2
20260507222023 51 332 1.0 2.0 0.00 0.00 0.00 91 1022.1
20260507221031 51 333 0.0 2.0 0.00 0.00 0.00 90 1022.2
20260507220032 51 333 1.0 2.0 0.00 0.00 0.00 89 1022.3
20260507215034 51 292 1.0 2.0 0.00 0.00 0.00 90 1022.1
20260507214019 52 159 1.0 1.0 0.00 0.00 0.00 90 1021.9
20260507213030 52 185 1.0 1.0 0.00 0.00 0.00 90 1021.9
20260507212023 52 179 1.0 2.0 0.00 0.00 0.00 90 1021.9
20260507211029 52 141 1.0 3.0 0.00 0.00 0.00 90 1022.1
20260507210029 52 183 0.0 1.0 0.00 0.00 0.00 89 1022.1
20260507205020 52 190 0.0 2.0 0.00 0.00 0.00 89 1022.2
20260507204033 52 179 0.0 1.0 0.00 0.00 0.00 89 1022.1
20260507203018 53 170 2.0 4.0 0.00 0.00 0.00 89 1022.0
20260507202021 53 152 2.0 4.0 0.00 0.00 0.00 89 1021.9
20260507201030 53 64 0.0 2.0 0.00 0.00 0.00 88 1021.9
20260507200024 53 119 2.0 4.0 0.00 0.00 0.00 86 1021.8
20260507195031 54 164 3.0 7.0 0.00 0.00 0.00 84 1021.8
20260507194046 53 145 2.0 4.0 0.00 0.00 0.00 85 1021.7
20260507193029 53 155 2.0 3.0 0.00 0.00 0.00 87 1021.5
20260507192029 53 148 4.0 7.0 0.00 0.00 0.00 87 1021.2
20260507191030 54 148 3.0 6.0 0.00 0.00 0.00 86 1021.2
20260507190023 54 159 3.0 7.0 0.00 0.00 0.00 83 1021.0
20260507185028 54 145 2.0 7.0 0.00 0.00 0.00 82 1021.0
20260507184032 55 157 1.0 3.0 0.00 0.00 0.00 78 1021.0
20260507183034 56 148 3.0 4.0 0.00 0.00 0.00 76 1021.0
20260507182039 56 324 2.0 3.0 0.00 0.00 0.00 75 1020.7
20260507181030 55 325 3.0 6.0 0.00 0.00 0.00 76 1020.6
20260507180017 56 329 4.0 8.0 0.00 0.00 0.00 75 1020.5
20260507175028 56 328 5.0 8.0 0.00 0.00 0.00 72 1020.3
20260507174032 57 328 4.0 9.0 0.00 0.00 0.00 71 1020.0
20260507173034 57 334 5.0 9.0 0.00 0.00 0.00 70 1019.9
20260507172019 57 324 4.0 8.0 0.00 0.00 0.00 70 1019.9
20260507171030 57 333 4.0 9.0 0.00 0.00 0.00 70 1019.9
20260507170028 57 282 2.0 7.0 0.00 0.00 0.00 71 1019.8
20260507165019 57 326 3.0 7.0 0.00 0.00 0.00 71 1019.8
20260507164020 58 326 4.0 7.0 0.00 0.00 0.00 70 1019.7
20260507163034 58 16 3.0 8.0 0.00 0.00 0.00 70 1019.6
20260507162041 59 351 2.0 4.0 0.00 0.00 0.00 69 1019.5
20260507161033 58 322 2.0 4.0 0.00 0.00 0.00 69 1019.4
20260507160017 59 335 5.0 8.0 0.00 0.00 0.00 69 1019.3
20260507155021 60 339 4.0 7.0 0.00 0.00 0.00 66 1019.2
20260507154020 61 338 3.0 8.0 0.00 0.00 0.00 63 1019.1
20260507153034 60 331 5.0 9.0 0.00 0.00 0.00 65 1019.1
20260507152024 60 340 4.0 8.0 0.00 0.00 0.00 65 1019.1
20260507151032 60 338 4.0 7.0 0.00 0.00 0.00 64 1019.2
20260507150021 61 323 4.0 8.0 0.00 0.00 0.00 64 1019.1
20260507145030 60 333 3.0 4.0 0.00 0.00 0.00 65 1019.1
20260507144023 59 349 1.0 3.0 0.00 0.00 0.00 67 1019.3
20260507143028 58 52 2.0 4.0 0.00 0.00 0.00 70 1019.3
20260507142027 58 4 3.0 9.0 0.00 0.00 0.00 70 1019.3
20260507141029 57 336 2.0 6.0 0.00 0.00 0.00 71 1019.3
20260507140017 57 317 5.0 10.0 0.00 0.00 0.00 72 1019.2
20260507135027 57 321 7.0 14.0 0.00 0.00 0.00 71 1019.2
20260507134037 58 329 9.0 15.0 0.00 0.00 0.00 67 1019.2
20260507133024 58 331 8.0 11.0 0.00 0.00 0.00 68 1019.2
20260507132033 58 327 9.0 14.0 0.00 0.00 0.00 67 1019.2
20260507131024 60 334 8.0 13.0 0.00 0.00 0.00 66 1019.1
20260507130020 60 329 9.0 17.0 0.00 0.00 0.00 63 1019.0
20260507125051 62 332 8.0 16.0 0.00 0.00 0.00 61 1018.9
20260507124023 59 307 3.0 9.0 0.00 0.00 0.00 63 1018.9
20260507123058 59 311 2.0 3.0 0.00 0.00 0.00 67 1018.7
20260507122104 57 139 2.0 6.0 0.00 0.00 0.00 70 1018.8
20260507121031 57 146 3.0 8.0 0.00 0.00 0.00 67 1018.7
20260507120032 56 169 4.0 10.0 0.00 0.00 0.00 73 1018.6
20260507115047 55 171 4.0 7.0 0.00 0.00 0.00 81 1018.8
20260507114032 54 170 3.0 7.0 0.00 0.00 0.00 83 1019.0
20260507113016 54 155 4.0 7.0 0.00 0.00 0.00 81 1019.1
20260507112024 54 145 4.0 6.0 0.00 0.00 0.00 80 1019.0
20260507111032 55 168 3.0 7.0 0.00 0.00 0.00 81 1019.2
20260507110033 55 153 3.0 7.0 0.00 0.00 0.00 76 1019.1
20260507105030 55 151 6.0 9.0 0.00 0.00 0.00 78 1019.1
20260507104024 56 153 5.0 7.0 0.00 0.00 0.00 73 1019.1
20260507103027 57 165 2.0 4.0 0.00 0.00 0.00 69 1019.1
20260507102032 57 93 1.0 2.0 0.00 0.00 0.00 66 1019.0
20260507101024 57 27 1.0 3.0 0.00 0.00 0.00 69 1019.0
20260507100023 56 48 1.0 3.0 0.00 0.00 0.00 71 1019.1
20260507095028 56 25 3.0 4.0 0.00 0.00 0.00 72 1019.1
20260507094023 57 343 4.0 8.0 0.00 0.00 0.00 68 1019.2
20260507093114 57 323 6.0 10.0 0.00 0.00 0.00 68 1019.1
20260507092020 58 335 4.0 13.0 0.00 0.00 0.00 67 1019.0
20260507091029 57 333 4.0 10.0 0.00 0.00 0.00 70 1019.1
20260507090023 55 327 5.0 9.0 0.00 0.00 0.00 72 1019.1
20260507085016 54 325 6.0 10.0 0.00 0.00 0.00 74 1019.1
20260507084053 54 324 7.0 11.0 0.00 0.00 0.00 74 1018.9
20260507083028 54 336 4.0 9.0 0.00 0.00 0.00 79 1019.0